Regional Weather Roundup
Issued by NWS Goodland, KS

Home | Current Version | Previous Version | Text Only | Print | Product List | Glossary Off
Versions: 1 2 3 4 5 6 7 8 9 10 11 12 13 14 15 16 17 18 19 20 21 22 23 24 25 26 27 28 29 30 31 32 33 34 35 36 37 38 39 40 41 42 43 44 45 46 47 48 49 50

000
ASUS43 KGLD 202359
RWRGLD

GOODLAND FORECAST AREA HOURLY WEATHER ROUNDUP
NATIONAL WEATHER SERVICE GOODLAND KS
500 PM MST SAT JAN 20 2018

...OFFICIAL OBSERVATIONS...

CITY           SKY/WX    TMP DP  RH WIND       PRES   REMARKS
GOODLAND KS    MOCLDY    38  26  62 NE10      29.75S
HILL CITY KS   CLOUDY    39  23  52 NE8       29.77R
IMPERIAL NEB   CLOUDY    37  30  75 NE12      29.80R
MCCOOK NEB     CLOUDY    37  28  70 NE8       29.78R
AKRON CO       CLOUDY    33  27  78 NE9       29.79R
BURLINGTON CO  CLOUDY    40  27  59 NE9       29.75S
LIMON CO       CLOUDY    41  26  55 N7        29.75R
$$

...UNOFFICIAL OBSERVATIONS...

CITY           SKY/WX    TMP DP  RH WIND       PRES   REMARKS
NORTON KS      CLEAR     37  27  65 N8        29.77
SHARON SPRINGS   N/A     45  27  49 NE5G12      N/A
KIT CARSON CO    N/A     44  26  49 MISG        N/A
$$




USA.gov is the U.S. government's official web portal to all federal, state and local government web resources and services.